| time (UTC) | temp F | wind direction | speed knots | gust knots | rain 1hr in | rain 24hr in | rain mn in | humidity % | barometer mb |
| 20260906145236 | 78 | 328 | 1.7 | 3.5 | 0.00 | 0.00 | 0.00 | 75 | 1017.0 |
| 20260906144735 | 78 | 43 | 2.6 | 2.6 | 0.00 | 0.00 | 0.00 | 74 | 1017.0 |
| 20260906144235 | 79 | 2 | 1.7 | 4.3 | 0.00 | 0.00 | 0.00 | 73 | 1017.0 |
| 20260906143735 | 79 | 218 | 0.9 | 3.5 | 0.00 | 0.00 | 0.00 | 72 | 1017.0 |
| 20260906143236 | 79 | 52 | 1.7 | 3.5 | 0.00 | 0.00 | 0.00 | 72 | 1017.0 |
| 20260906142735 | 79 | 325 | 2.6 | 5.2 | 0.00 | 0.00 | 0.00 | 71 | 1017.0 |
| 20260906142235 | 79 | 60 | 1.7 | 4.3 | 0.00 | 0.00 | 0.00 | 71 | 1017.0 |
| 20260906141735 | 79 | 318 | 1.7 | 3.5 | 0.00 | 0.00 | 0.00 | 72 | 1017.0 |
| 20260906141236 | 79 | 81 | 1.7 | 4.3 | 0.00 | 0.00 | 0.00 | 71 | 1017.0 |
| 20260906140735 | 79 | 36 | 1.7 | 4.3 | 0.00 | 0.00 | 0.00 | 72 | 1017.0 |
| 20260906140235 | 78 | 196 | 0.9 | 3.5 | 0.00 | 0.00 | 0.00 | 73 | 1017.0 |
| 20260906135735 | 78 | 302 | 0.0 | 1.7 | 0.00 | 0.00 | 0.00 | 75 | 1017.0 |
| 20260906135236 | 78 | 30 | 3.5 | 4.3 | 0.00 | 0.00 | 0.00 | 74 | 1017.0 |
| 20260906134735 | 78 | 28 | 1.7 | 3.5 | 0.00 | 0.00 | 0.00 | 74 | 1017.0 |
| 20260906134235 | 78 | 1 | 2.6 | 4.3 | 0.00 | 0.00 | 0.00 | 75 | 1017.0 |
| 20260906133735 | 78 | 16 | 0.9 | 0.9 | 0.00 | 0.00 | 0.00 | 76 | 1017.0 |
| 20260906133235 | 77 | 87 | 0.0 | 4.3 | 0.00 | 0.00 | 0.00 | 76 | 1017.0 |
| 20260906132735 | 77 | 166 | 0.0 | 2.6 | 0.00 | 0.00 | 0.00 | 77 | 1017.0 |
| 20260906132235 | 78 | 54 | 1.7 | 3.5 | 0.00 | 0.00 | 0.00 | 77 | 1017.0 |
| 20260906131737 | 78 | 266 | 0.0 | 2.6 | 0.00 | 0.00 | 0.00 | 77 | 1017.0 |
| 20260906131235 | 77 | 293 | 0.0 | 1.7 | 0.00 | 0.00 | 0.00 | 79 | 1017.0 |
| 20260906130736 | 77 | 289 | 0.9 | 1.7 | 0.00 | 0.00 | 0.00 | 79 | 1017.0 |
| 20260906130236 | 77 | 23 | 0.0 | 2.6 | 0.00 | 0.00 | 0.00 | 80 | 1017.0 |
| 20260906125735 | 76 | 255 | 0.0 | 1.7 | 0.00 | 0.00 | 0.00 | 81 | 1017.0 |
| 20260906125235 | 76 | 303 | 0.9 | 2.6 | 0.00 | 0.00 | 0.00 | 81 | 1017.0 |
| 20260906124735 | 76 | 337 | 1.7 | 3.5 | 0.00 | 0.00 | 0.00 | 82 | 1017.0 |
| 20260906124235 | 76 | 54 | 1.7 | 2.6 | 0.00 | 0.00 | 0.00 | 82 | 1017.0 |
| 20260906123735 | 76 | 342 | 1.7 | 3.5 | 0.00 | 0.00 | 0.00 | 83 | 1016.0 |
| 20260906123235 | 76 | 245 | 0.9 | 1.7 | 0.00 | 0.00 | 0.00 | 83 | 1016.0 |
| 20260906122737 | 76 | 1 | 3.5 | 4.3 | 0.00 | 0.00 | 0.00 | 83 | 1016.0 |
| 20260906122235 | 76 | 264 | 0.9 | 1.7 | 0.00 | 0.00 | 0.00 | 83 | 1016.0 |
| 20260906121735 | 76 | 329 | 1.7 | 1.7 | 0.00 | 0.00 | 0.00 | 83 | 1016.0 |
| 20260906121235 | 76 | 48 | 0.9 | 2.6 | 0.00 | 0.00 | 0.00 | 83 | 1016.0 |
| 20260906120737 | 76 | 360 | 0.0 | 0.9 | 0.00 | 0.00 | 0.00 | 83 | 1016.0 |
| 20260906120235 | 76 | 343 | 0.9 | 1.7 | 0.00 | 0.00 | 0.00 | 82 | 1016.0 |
| 20260906115735 | 76 | 317 | 1.7 | 1.7 | 0.00 | 0.00 | 0.00 | 83 | 1016.0 |
| 20260906115235 | 76 | 261 | 0.0 | 0.9 | 0.00 | 0.00 | 0.00 | 82 | 1016.0 |
| 20260906114735 | 76 | 277 | 0.0 | 1.7 | 0.00 | 0.00 | 0.00 | 82 | 1016.0 |
| 20260906114235 | 76 | 345 | 0.9 | 1.7 | 0.00 | 0.00 | 0.00 | 82 | 1016.0 |
| 20260906113735 | 76 | 302 | 0.0 | 2.6 | 0.00 | 0.00 | 0.00 | 82 | 1016.0 |
| 20260906113236 | 76 | 318 | 0.0 | 1.7 | 0.00 | 0.00 | 0.00 | 82 | 1016.0 |
| 20260906112736 | 76 | 258 | 0.0 | 0.9 | 0.00 | 0.00 | 0.00 | 81 | 1016.0 |
| 20260906112235 | 76 | 247 | 0.0 | 0.9 | 0.00 | 0.00 | 0.00 | 81 | 1016.0 |
| 20260906111735 | 76 | 286 | 0.9 | 1.7 | 0.00 | 0.00 | 0.00 | 82 | 1016.0 |
| 20260906111235 | 77 | 272 | 0.0 | 2.6 | 0.00 | 0.00 | 0.00 | 82 | 1016.0 |
| 20260906110735 | 77 | 272 | 0.9 | 1.7 | 0.00 | 0.00 | 0.00 | 82 | 1016.0 |
| 20260906110235 | 77 | 297 | 0.0 | 1.7 | 0.00 | 0.00 | 0.00 | 81 | 1016.0 |
| 20260906105735 | 77 | 278 | 0.9 | 1.7 | 0.00 | 0.00 | 0.00 | 81 | 1016.0 |
| 20260906105235 | 77 | 292 | 0.9 | 1.7 | 0.00 | 0.00 | 0.00 | 80 | 1015.0 |
| 20260906104736 | 77 | 287 | 0.9 | 1.7 | 0.00 | 0.00 | 0.00 | 80 | 1015.0 |
| 20260906104236 | 77 | 240 | 0.0 | 1.7 | 0.00 | 0.00 | 0.00 | 80 | 1015.0 |
| 20260906103735 | 77 | 272 | 0.9 | 1.7 | 0.00 | 0.00 | 0.00 | 79 | 1015.0 |
| 20260906103235 | 78 | 313 | 0.9 | 2.6 | 0.00 | 0.00 | 0.00 | 79 | 1015.0 |
| 20260906102735 | 78 | 338 | 0.9 | 2.6 | 0.00 | 0.00 | 0.00 | 79 | 1015.0 |
| 20260906102235 | 78 | 42 | 1.7 | 2.6 | 0.00 | 0.00 | 0.00 | 79 | 1015.0 |
| 20260906101735 | 78 | 15 | 1.7 | 1.7 | 0.00 | 0.00 | 0.00 | 78 | 1015.0 |
| 20260906101235 | 78 | 127 | 1.7 | 1.7 | 0.00 | 0.00 | 0.00 | 79 | 1015.0 |
| 20260906100735 | 78 | 336 | 0.0 | 1.7 | 0.00 | 0.00 | 0.00 | 78 | 1015.0 |
| 20260906100235 | 78 | 261 | 0.9 | 0.9 | 0.00 | 0.00 | 0.00 | 78 | 1015.0 |
| 20260906095735 | 78 | 322 | 0.0 | 1.7 | 0.00 | 0.00 | 0.00 | 78 | 1015.0 |
| 20260906095235 | 78 | 1 | 0.0 | 3.5 | 0.00 | 0.00 | 0.00 | 78 | 1015.0 |
| 20260906094735 | 79 | 330 | 0.9 | 1.7 | 0.00 | 0.00 | 0.00 | 78 | 1015.0 |
| 20260906094235 | 79 | 315 | 0.0 | 1.7 | 0.00 | 0.00 | 0.00 | 78 | 1015.0 |
| 20260906093735 | 79 | 49 | 1.7 | 3.5 | 0.00 | 0.00 | 0.00 | 78 | 1015.0 |
| 20260906093235 | 79 | 298 | 0.0 | 2.6 | 0.00 | 0.00 | 0.00 | 78 | 1015.0 |
| 20260906092735 | 79 | 97 | 0.9 | 2.6 | 0.00 | 0.00 | 0.00 | 78 | 1015.0 |
| 20260906092235 | 79 | 307 | 0.0 | 2.6 | 0.00 | 0.00 | 0.00 | 78 | 1015.0 |
| 20260906091735 | 79 | 286 | 0.0 | 3.5 | 0.00 | 0.00 | 0.00 | 78 | 1015.0 |
| 20260906091236 | 80 | 320 | 0.0 | 2.6 | 0.00 | 0.00 | 0.00 | 78 | 1015.0 |
| 20260906090735 | 80 | 320 | 0.0 | 2.6 | 0.00 | 0.00 | 0.00 | 78 | 1015.0 |
| 20260906090235 | 80 | 280 | 0.9 | 1.7 | 0.00 | 0.00 | 0.00 | 77 | 1015.0 |
| 20260906085736 | 80 | 55 | 2.6 | 2.6 | 0.00 | 0.00 | 0.00 | 76 | 1015.0 |
| 20260906085235 | 80 | 15 | 2.6 | 2.6 | 0.00 | 0.00 | 0.00 | 76 | 1015.0 |
| 20260906084736 | 81 | 23 | 1.7 | 3.5 | 0.00 | 0.00 | 0.00 | 76 | 1015.0 |
| 20260906084235 | 81 | 352 | 0.9 | 3.5 | 0.00 | 0.00 | 0.00 | 76 | 1014.0 |
| 20260906083736 | 81 | 51 | 1.7 | 2.6 | 0.00 | 0.00 | 0.00 | 77 | 1014.0 |
| 20260906083235 | 81 | 347 | 0.0 | 4.3 | 0.00 | 0.00 | 0.00 | 77 | 1014.0 |
| 20260906082735 | 81 | 37 | 2.6 | 3.5 | 0.00 | 0.00 | 0.00 | 77 | 1014.0 |
| 20260906082235 | 82 | 340 | 1.7 | 2.6 | 0.00 | 0.00 | 0.00 | 75 | 1015.0 |
| 20260906081735 | 82 | 78 | 0.0 | 1.7 | 0.00 | 0.00 | 0.00 | 74 | 1014.0 |
| 20260906081235 | 82 | 81 | 0.0 | 2.6 | 0.00 | 0.00 | 0.00 | 73 | 1015.0 |
| 20260906080735 | 82 | 139 | 0.9 | 2.6 | 0.00 | 0.00 | 0.00 | 73 | 1015.0 |
| 20260906080235 | 82 | 145 | 0.0 | 3.5 | 0.00 | 0.00 | 0.00 | 74 | 1014.0 |
| 20260906075736 | 82 | 317 | 0.9 | 2.6 | 0.00 | 0.00 | 0.00 | 75 | 1014.0 |
| 20260906075235 | 82 | 52 | 1.7 | 4.3 | 0.00 | 0.00 | 0.00 | 75 | 1014.0 |
| 20260906074735 | 82 | 18 | 2.6 | 3.5 | 0.00 | 0.00 | 0.00 | 76 | 1014.0 |
| 20260906074238 | 82 | 99 | 1.7 | 4.3 | 0.00 | 0.00 | 0.00 | 76 | 1014.0 |
| 20260906073735 | 82 | 63 | 0.9 | 3.5 | 0.00 | 0.00 | 0.00 | 76 | 1014.0 |
| 20260906073235 | 82 | 356 | 0.0 | 1.7 | 0.00 | 0.00 | 0.00 | 76 | 1014.0 |
| 20260906072736 | 83 | 67 | 0.0 | 2.6 | 0.00 | 0.00 | 0.00 | 76 | 1014.0 |
| 20260906072235 | 83 | 124 | 0.9 | 3.5 | 0.00 | 0.00 | 0.00 | 76 | 1014.0 |
| 20260906071735 | 83 | 102 | 4.3 | 4.3 | 0.00 | 0.00 | 0.00 | 76 | 1014.0 |
| 20260906071236 | 83 | 168 | 0.0 | 1.7 | 0.00 | 0.00 | 0.00 | 75 | 1014.0 |
| 20260906070735 | 83 | 203 | 0.0 | 2.6 | 0.00 | 0.00 | 0.00 | 75 | 1014.0 |
| 20260906070236 | 84 | 329 | 0.0 | 1.7 | 0.00 | 0.00 | 0.00 | 74 | 1014.0 |
| 20260906065735 | 84 | 190 | 0.0 | 1.7 | 0.00 | 0.00 | 0.00 | 74 | 1014.0 |
| 20260906065235 | 84 | 99 | 0.9 | 4.3 | 0.00 | 0.00 | 0.00 | 74 | 1014.0 |
| 20260906064735 | 84 | 106 | 3.5 | 4.3 | 0.00 | 0.00 | 0.00 | 73 | 1014.0 |
| 20260906064236 | 84 | 235 | 0.9 | 1.7 | 0.00 | 0.00 | 0.00 | 73 | 1014.0 |
| 20260906063735 | 84 | 327 | 0.0 | 2.6 | 0.00 | 0.00 | 0.00 | 73 | 1015.0 |
| 20260906063235 | 85 | 109 | 3.5 | 3.5 | 0.00 | 0.00 | 0.00 | 72 | 1015.0 |
| 20260906062735 | 85 | 231 | 0.9 | 3.5 | 0.00 | 0.00 | 0.00 | 71 | 1014.0 |
| 20260906062235 | 85 | 49 | 0.0 | 2.6 | 0.00 | 0.00 | 0.00 | 71 | 1015.0 |
| 20260906061735 | 85 | 148 | 0.0 | 2.6 | 0.00 | 0.00 | 0.00 | 70 | 1014.0 |
| 20260906061235 | 86 | 346 | 0.0 | 3.5 | 0.00 | 0.00 | 0.00 | 70 | 1014.0 |
| 20260906060735 | 86 | 119 | 1.7 | 2.6 | 0.00 | 0.00 | 0.00 | 69 | 1015.0 |
| 20260906060235 | 86 | 140 | 0.9 | 3.5 | 0.00 | 0.00 | 0.00 | 69 | 1015.0 |
| 20260906055735 | 86 | 33 | 3.5 | 3.5 | 0.00 | 0.00 | 0.00 | 69 | 1015.0 |
| 20260906055236 | 86 | 101 | 0.0 | 3.5 | 0.00 | 0.00 | 0.00 | 69 | 1014.0 |
| 20260906054735 | 86 | 349 | 2.6 | 3.5 | 0.00 | 0.00 | 0.00 | 69 | 1014.0 |
| 20260906054235 | 86 | 45 | 1.7 | 1.7 | 0.00 | 0.00 | 0.00 | 68 | 1014.0 |
| 20260906053737 | 87 | 97 | 1.7 | 2.6 | 0.00 | 0.00 | 0.00 | 68 | 1014.0 |
| 20260906053235 | 87 | 325 | 0.9 | 2.6 | 0.00 | 0.00 | 0.00 | 68 | 1014.0 |
| 20260906052735 | 87 | 232 | 0.0 | 1.7 | 0.00 | 0.00 | 0.00 | 68 | 1015.0 |
| 20260906052237 | 87 | 322 | 0.0 | 1.7 | 0.00 | 0.00 | 0.00 | 67 | 1014.0 |
| 20260906051739 | 87 | 308 | 0.9 | 1.7 | 0.00 | 0.00 | 0.00 | 67 | 1015.0 |
| 20260906051236 | 87 | 89 | 0.0 | 1.7 | 0.00 | 0.00 | 0.00 | 67 | 1015.0 |
| 20260906050735 | 87 | 304 | 0.0 | 2.6 | 0.00 | 0.00 | 0.00 | 66 | 1015.0 |
| 20260906050236 | 87 | 230 | 0.0 | 1.7 | 0.00 | 0.00 | 0.00 | 66 | 1014.0 |
| 20260906045736 | 87 | 330 | 0.0 | 1.7 | 0.00 | 0.00 | 0.00 | 66 | 1014.0 |
| 20260906045235 | 87 | 107 | 0.9 | 0.9 | 0.00 | 0.00 | 0.00 | 65 | 1014.0 |
| 20260906044735 | 87 | 254 | 0.0 | 1.7 | 0.00 | 0.00 | 0.00 | 65 | 1014.0 |
| 20260906044235 | 88 | 164 | 0.9 | 0.9 | 0.00 | 0.00 | 0.00 | 65 | 1014.0 |
| 20260906043735 | 88 | 263 | 0.9 | 1.7 | 0.00 | 0.00 | 0.00 | 64 | 1014.0 |
| 20260906043236 | 88 | 315 | 0.0 | 1.7 | 0.00 | 0.00 | 0.00 | 64 | 1014.0 |
| 20260906042735 | 88 | 160 | 0.9 | 2.6 | 0.00 | 0.00 | 0.00 | 64 | 1014.0 |
| 20260906042235 | 88 | 333 | 0.0 | 1.7 | 0.00 | 0.00 | 0.00 | 63 | 1014.0 |
| 20260906041735 | 89 | 126 | 0.0 | 1.7 | 0.00 | 0.00 | 0.00 | 63 | 1014.0 |
| 20260906041235 | 89 | 230 | 1.7 | 2.6 | 0.00 | 0.00 | 0.00 | 62 | 1014.0 |
| 20260906040735 | 89 | 304 | 0.0 | 2.6 | 0.00 | 0.00 | 0.00 | 62 | 1014.0 |
| 20260906040235 | 89 | 171 | 0.0 | 1.7 | 0.00 | 0.00 | 0.00 | 61 | 1014.0 |
| 20260906035735 | 89 | 315 | 0.0 | 2.6 | 0.00 | 0.00 | 0.00 | 61 | 1014.0 |
| 20260906035236 | 89 | 193 | 0.0 | 1.7 | 0.00 | 0.00 | 0.00 | 60 | 1014.0 |
| 20260906034735 | 89 | 8 | 1.7 | 2.6 | 0.00 | 0.00 | 0.00 | 60 | 1014.0 |
| 20260906034235 | 89 | 332 | 0.9 | 1.7 | 0.00 | 0.00 | 0.00 | 59 | 1014.0 |
| 20260906033735 | 89 | 310 | 0.0 | 2.6 | 0.00 | 0.00 | 0.00 | 59 | 1014.0 |
| 20260906033236 | 89 | 319 | 1.7 | 2.6 | 0.00 | 0.00 | 0.00 | 58 | 1014.0 |
| 20260906032735 | 90 | 80 | 0.0 | 1.7 | 0.00 | 0.00 | 0.00 | 57 | 1014.0 |
| 20260906032235 | 90 | 346 | 1.7 | 3.5 | 0.00 | 0.00 | 0.00 | 57 | 1014.0 |
| 20260906031735 | 90 | 8 | 0.0 | 5.2 | 0.00 | 0.00 | 0.00 | 56 | 1014.0 |
| 20260906031235 | 90 | 33 | 3.5 | 3.5 | 0.00 | 0.00 | 0.00 | 56 | 1014.0 |
| 20260906030735 | 90 | 344 | 0.9 | 2.6 | 0.00 | 0.00 | 0.00 | 55 | 1014.0 |
| 20260906030237 | 90 | 346 | 0.9 | 1.7 | 0.00 | 0.00 | 0.00 | 54 | 1014.0 |
| 20260906025735 | 89 | 298 | 1.7 | 3.5 | 0.00 | 0.00 | 0.00 | 54 | 1014.0 |
| 20260906025235 | 89 | 306 | 0.9 | 1.7 | 0.00 | 0.00 | 0.00 | 54 | 1014.0 |
| 20260906024735 | 89 | 314 | 0.0 | 1.7 | 0.00 | 0.00 | 0.00 | 55 | 1014.0 |
| 20260906024235 | 89 | 259 | 1.7 | 1.7 | 0.00 | 0.00 | 0.00 | 54 | 1014.0 |
| 20260906023735 | 89 | 265 | 1.7 | 2.6 | 0.00 | 0.00 | 0.00 | 54 | 1014.0 |
| 20260906023235 | 89 | 271 | 0.0 | 1.7 | 0.00 | 0.00 | 0.00 | 53 | 1014.0 |
| 20260906022735 | 89 | 255 | 0.0 | 1.7 | 0.00 | 0.00 | 0.00 | 53 | 1013.0 |
| 20260906022235 | 89 | 307 | 0.0 | 1.7 | 0.00 | 0.00 | 0.00 | 53 | 1013.0 |
| 20260906021735 | 90 | 266 | 0.9 | 1.7 | 0.00 | 0.00 | 0.00 | 53 | 1013.0 |
| 20260906021235 | 90 | 251 | 1.7 | 1.7 | 0.00 | 0.00 | 0.00 | 53 | 1013.0 |
| 20260906020735 | 90 | 266 | 0.9 | 1.7 | 0.00 | 0.00 | 0.00 | 52 | 1013.0 |
| 20260906020235 | 90 | 266 | 0.9 | 1.7 | 0.00 | 0.00 | 0.00 | 52 | 1013.0 |
| 20260906015736 | 90 | 296 | 1.7 | 1.7 | 0.00 | 0.00 | 0.00 | 52 | 1013.0 |
| 20260906015236 | 90 | 255 | 0.9 | 1.7 | 0.00 | 0.00 | 0.00 | 53 | 1013.0 |
| 20260906014735 | 90 | 269 | 0.9 | 1.7 | 0.00 | 0.00 | 0.00 | 53 | 1013.0 |
| 20260906014235 | 91 | 262 | 1.7 | 1.7 | 0.00 | 0.00 | 0.00 | 53 | 1013.0 |
| 20260906013735 | 91 | 258 | 1.7 | 1.7 | 0.00 | 0.00 | 0.00 | 51 | 1013.0 |
| 20260906013236 | 91 | 271 | 0.9 | 1.7 | 0.00 | 0.00 | 0.00 | 51 | 1013.0 |
| 20260906012735 | 92 | 252 | 0.9 | 1.7 | 0.00 | 0.00 | 0.00 | 50 | 1013.0 |
| 20260906012235 | 92 | 262 | 0.0 | 1.7 | 0.00 | 0.00 | 0.00 | 50 | 1013.0 |
| 20260906011736 | 92 | 333 | 0.9 | 1.7 | 0.00 | 0.00 | 0.00 | 50 | 1013.0 |
| 20260906011236 | 92 | 258 | 0.9 | 1.7 | 0.00 | 0.00 | 0.00 | 49 | 1013.0 |
| 20260906010735 | 93 | 262 | 0.9 | 1.7 | 0.00 | 0.00 | 0.00 | 49 | 1013.0 |
| 20260906010235 | 93 | 266 | 0.0 | 1.7 | 0.00 | 0.00 | 0.00 | 48 | 1013.0 |
| 20260906005735 | 93 | 301 | 0.0 | 2.6 | 0.00 | 0.00 | 0.00 | 48 | 1012.0 |
| 20260906005235 | 93 | 313 | 0.9 | 1.7 | 0.00 | 0.00 | 0.00 | 47 | 1012.0 |
| 20260906004736 | 93 | 324 | 1.7 | 2.6 | 0.00 | 0.00 | 0.00 | 47 | 1012.0 |
| 20260906004235 | 94 | 314 | 0.9 | 2.6 | 0.00 | 0.00 | 0.00 | 47 | 1012.0 |
| 20260906003735 | 94 | 268 | 1.7 | 1.7 | 0.00 | 0.00 | 0.00 | 46 | 1012.0 |
| 20260906003235 | 94 | 308 | 0.9 | 1.7 | 0.00 | 0.00 | 0.00 | 46 | 1012.0 |
| 20260906002735 | 95 | 259 | 0.9 | 1.7 | 0.00 | 0.00 | 0.00 | 46 | 1012.0 |
| 20260906002235 | 95 | 259 | 1.7 | 1.7 | 0.00 | 0.00 | 0.00 | 45 | 1012.0 |
| 20260906001735 | 95 | 195 | 0.0 | 1.7 | 0.00 | 0.00 | 0.00 | 45 | 1012.0 |
| 20260906001235 | 95 | 232 | 1.7 | 1.7 | 0.00 | 0.00 | 0.00 | 44 | 1012.0 |
| 20260906000735 | 95 | 355 | 2.6 | 2.6 | 0.00 | 0.00 | 0.00 | 44 | 1012.0 |
| 20260906000235 | 95 | 319 | 2.6 | 2.6 | 0.00 | 0.00 | 0.00 | 43 | 1012.0 |
| 20260905235735 | 96 | 260 | 0.9 | 1.7 | 0.00 | 0.00 | 0.00 | 44 | 1012.0 |
| 20260905235235 | 96 | 308 | 1.7 | 2.6 | 0.00 | 0.00 | 0.00 | 43 | 1012.0 |
| 20260905234735 | 96 | 281 | 0.9 | 2.6 | 0.00 | 0.00 | 0.00 | 44 | 1012.0 |
| 20260905234235 | 96 | 277 | 1.7 | 1.7 | 0.00 | 0.00 | 0.00 | 44 | 1012.0 |
| 20260905233735 | 97 | 283 | 0.9 | 1.7 | 0.00 | 0.00 | 0.00 | 43 | 1012.0 |
| 20260905233235 | 97 | 257 | 0.9 | 2.6 | 0.00 | 0.00 | 0.00 | 43 | 1012.0 |
| 20260905232735 | 97 | 280 | 2.6 | 3.5 | 0.00 | 0.00 | 0.00 | 42 | 1012.0 |
| 20260905232235 | 97 | 296 | 2.6 | 3.5 | 0.00 | 0.00 | 0.00 | 42 | 1013.0 |
| 20260905231735 | 97 | 285 | 2.6 | 3.5 | 0.00 | 0.00 | 0.00 | 41 | 1012.0 |
| 20260905231235 | 97 | 285 | 2.6 | 4.3 | 0.00 | 0.00 | 0.00 | 42 | 1013.0 |
| 20260905230735 | 97 | 303 | 3.5 | 4.3 | 0.00 | 0.00 | 0.00 | 41 | 1012.0 |
| 20260905230236 | 98 | 283 | 2.6 | 5.2 | 0.00 | 0.00 | 0.00 | 40 | 1013.0 |
| 20260905225735 | 99 | 304 | 3.5 | 4.3 | 0.00 | 0.00 | 0.00 | 39 | 1012.0 |
| 20260905225235 | 99 | 286 | 2.6 | 3.5 | 0.00 | 0.00 | 0.00 | 39 | 1012.0 |
| 20260905224735 | 99 | 304 | 0.0 | 2.6 | 0.00 | 0.00 | 0.00 | 40 | 1012.0 |
| 20260905224235 | 99 | 266 | 2.6 | 4.3 | 0.00 | 0.00 | 0.00 | 40 | 1012.0 |
| 20260905223735 | 98 | 291 | 2.6 | 4.3 | 0.00 | 0.00 | 0.00 | 40 | 1012.0 |
| 20260905223236 | 98 | 276 | 2.6 | 3.5 | 0.00 | 0.00 | 0.00 | 41 | 1012.0 |
| 20260905222735 | 98 | 280 | 3.5 | 3.5 | 0.00 | 0.00 | 0.00 | 42 | 1012.0 |
| 20260905222236 | 98 | 290 | 1.7 | 3.5 | 0.00 | 0.00 | 0.00 | 42 | 1012.0 |
| 20260905221736 | 98 | 295 | 1.7 | 2.6 | 0.00 | 0.00 | 0.00 | 41 | 1012.0 |
| 20260905221235 | 98 | 281 | 3.5 | 3.5 | 0.00 | 0.00 | 0.00 | 41 | 1012.0 |
| 20260905220735 | 98 | 312 | 2.6 | 3.5 | 0.00 | 0.00 | 0.00 | 40 | 1012.0 |
| 20260905220236 | 98 | 278 | 1.7 | 3.5 | 0.00 | 0.00 | 0.00 | 41 | 1013.0 |
| 20260905215735 | 98 | 302 | 4.3 | 4.3 | 0.00 | 0.00 | 0.00 | 41 | 1012.0 |
| 20260905215235 | 99 | 324 | 2.6 | 4.3 | 0.00 | 0.00 | 0.00 | 40 | 1013.0 |
| 20260905214735 | 99 | 264 | 4.3 | 6.1 | 0.00 | 0.00 | 0.00 | 39 | 1012.0 |
| 20260905214235 | 99 | 260 | 3.5 | 5.2 | 0.00 | 0.00 | 0.00 | 39 | 1012.0 |
| 20260905213736 | 98 | 267 | 1.7 | 3.5 | 0.00 | 0.00 | 0.00 | 38 | 1012.0 |
| 20260905213235 | 98 | 264 | 2.6 | 3.5 | 0.00 | 0.00 | 0.00 | 38 | 1012.0 |
| 20260905212735 | 98 | 261 | 1.7 | 3.5 | 0.00 | 0.00 | 0.00 | 39 | 1012.0 |
| 20260905212235 | 97 | 275 | 1.7 | 3.5 | 0.00 | 0.00 | 0.00 | 38 | 1012.0 |
| 20260905211735 | 97 | 258 | 3.5 | 4.3 | 0.00 | 0.00 | 0.00 | 38 | 1012.0 |
| 20260905211236 | 97 | 273 | 1.7 | 2.6 | 0.00 | 0.00 | 0.00 | 39 | 1012.0 |
| 20260905210735 | 96 | 243 | 2.6 | 4.3 | 0.00 | 0.00 | 0.00 | 39 | 1012.0 |
| 20260905210235 | 95 | 267 | 2.6 | 4.3 | 0.00 | 0.00 | 0.00 | 39 | 1013.0 |
| 20260905205736 | 96 | 259 | 2.6 | 4.3 | 0.00 | 0.00 | 0.00 | 38 | 1013.0 |
| 20260905205235 | 96 | 260 | 2.6 | 6.1 | 0.00 | 0.00 | 0.00 | 38 | 1013.0 |
| 20260905204735 | 96 | 231 | 1.7 | 4.3 | 0.00 | 0.00 | 0.00 | 39 | 1013.0 |
| 20260905204236 | 95 | 237 | 2.6 | 4.3 | 0.00 | 0.00 | 0.00 | 39 | 1013.0 |
| 20260905203736 | 97 | 284 | 6.1 | 8.7 | 0.00 | 0.00 | 0.00 | 37 | 1013.0 |
| 20260905203235 | 98 | 250 | 4.3 | 4.3 | 0.00 | 0.00 | 0.00 | 39 | 1013.0 |
| 20260905202740 | 98 | 285 | 1.7 | 2.6 | 0.00 | 0.00 | 0.00 | 39 | 1013.0 |
| 20260905202236 | 99 | 292 | 2.6 | 3.5 | 0.00 | 0.00 | 0.00 | 40 | 1013.0 |
| 20260905201735 | 99 | 302 | 1.7 | 1.7 | 0.00 | 0.00 | 0.00 | 38 | 1013.0 |
| 20260905201235 | 99 | 258 | 1.7 | 2.6 | 0.00 | 0.00 | 0.00 | 37 | 1013.0 |
| 20260905200735 | 100 | 249 | 3.5 | 3.5 | 0.00 | 0.00 | 0.00 | 37 | 1013.0 |
| 20260905200235 | 100 | 285 | 0.9 | 2.6 | 0.00 | 0.00 | 0.00 | 36 | 1013.0 |
| 20260905195736 | 100 | 272 | 0.9 | 3.5 | 0.00 | 0.00 | 0.00 | 35 | 1013.0 |
| 20260905195236 | 100 | 236 | 0.0 | 2.6 | 0.00 | 0.00 | 0.00 | 36 | 1013.0 |
| 20260905194735 | 101 | 298 | 4.3 | 5.2 | 0.00 | 0.00 | 0.00 | 35 | 1013.0 |
| 20260905194235 | 100 | 279 | 1.7 | 4.3 | 0.00 | 0.00 | 0.00 | 36 | 1013.0 |
| 20260905193735 | 101 | 280 | 2.6 | 5.2 | 0.00 | 0.00 | 0.00 | 35 | 1013.0 |
| 20260905193235 | 101 | 315 | 3.5 | 4.3 | 0.00 | 0.00 | 0.00 | 36 | 1013.0 |
| 20260905192735 | 100 | 296 | 2.6 | 4.3 | 0.00 | 0.00 | 0.00 | 36 | 1014.0 |
| 20260905192235 | 100 | 295 | 1.7 | 2.6 | 0.00 | 0.00 | 0.00 | 37 | 1013.0 |
| 20260905191736 | 100 | 251 | 3.5 | 7.0 | 0.00 | 0.00 | 0.00 | 36 | 1013.0 |
| 20260905191236 | 100 | 260 | 1.7 | 4.3 | 0.00 | 0.00 | 0.00 | 36 | 1014.0 |
| 20260905190736 | 100 | 269 | 3.5 | 4.3 | 0.00 | 0.00 | 0.00 | 36 | 1014.0 |
| 20260905190236 | 100 | 256 | 3.5 | 5.2 | 0.00 | 0.00 | 0.00 | 36 | 1013.0 |
| 20260905185736 | 100 | 285 | 2.6 | 5.2 | 0.00 | 0.00 | 0.00 | 36 | 1013.0 |
| 20260905185235 | 100 | 249 | 4.3 | 8.7 | 0.00 | 0.00 | 0.00 | 37 | 1014.0 |
| 20260905184736 | 99 | 243 | 7.0 | 7.8 | 0.00 | 0.00 | 0.00 | 37 | 1014.0 |
| 20260905184235 | 99 | 275 | 3.5 | 4.3 | 0.00 | 0.00 | 0.00 | 38 | 1014.0 |
| 20260905183736 | 99 | 258 | 3.5 | 6.1 | 0.00 | 0.00 | 0.00 | 37 | 1014.0 |
| 20260905183235 | 100 | 302 | 6.1 | 7.8 | 0.00 | 0.00 | 0.00 | 39 | 1014.0 |
| 20260905182735 | 99 | 310 | 1.7 | 4.3 | 0.00 | 0.00 | 0.00 | 41 | 1014.0 |
| 20260905182235 | 98 | 241 | 2.6 | 3.5 | 0.00 | 0.00 | 0.00 | 39 | 1014.0 |
| 20260905181735 | 98 | 274 | 1.7 | 5.2 | 0.00 | 0.00 | 0.00 | 40 | 1014.0 |
| 20260905181235 | 98 | 335 | 1.7 | 4.3 | 0.00 | 0.00 | 0.00 | 40 | 1014.0 |
| 20260905180735 | 98 | 275 | 0.9 | 3.5 | 0.00 | 0.00 | 0.00 | 43 | 1014.0 |
| 20260905180235 | 97 | 281 | 2.6 | 6.1 | 0.00 | 0.00 | 0.00 | 42 | 1014.0 |
| 20260905175735 | 97 | 271 | 2.6 | 4.3 | 0.00 | 0.00 | 0.00 | 43 | 1014.0 |
| 20260905175235 | 97 | 229 | 6.1 | 7.0 | 0.00 | 0.00 | 0.00 | 43 | 1014.0 |
| 20260905174736 | 97 | 306 | 4.3 | 4.3 | 0.00 | 0.00 | 0.00 | 43 | 1014.0 |
| 20260905174235 | 96 | 310 | 2.6 | 4.3 | 0.00 | 0.00 | 0.00 | 43 | 1014.0 |
| 20260905173735 | 97 | 252 | 2.6 | 5.2 | 0.00 | 0.00 | 0.00 | 42 | 1014.0 |
| 20260905173235 | 97 | 247 | 4.3 | 5.2 | 0.00 | 0.00 | 0.00 | 43 | 1014.0 |
| 20260905172736 | 97 | 277 | 2.6 | 5.2 | 0.00 | 0.00 | 0.00 | 43 | 1014.0 |
| 20260905172235 | 96 | 278 | 2.6 | 4.3 | 0.00 | 0.00 | 0.00 | 44 | 1014.0 |
| 20260905171736 | 96 | 259 | 3.5 | 4.3 | 0.00 | 0.00 | 0.00 | 44 | 1015.0 |
| 20260905171239 | 96 | 245 | 3.5 | 6.1 | 0.00 | 0.00 | 0.00 | 43 | 1014.0 |
| 20260905170737 | 96 | 305 | 1.7 | 5.2 | 0.00 | 0.00 | 0.00 | 44 | 1014.0 |
| 20260905170236 | 95 | 287 | 2.6 | 4.3 | 0.00 | 0.00 | 0.00 | 45 | 1015.0 |
| 20260905165736 | 95 | 245 | 2.6 | 4.3 | 0.00 | 0.00 | 0.00 | 45 | 1015.0 |
| 20260905165236 | 95 | 228 | 3.5 | 4.3 | 0.00 | 0.00 | 0.00 | 46 | 1015.0 |
| 20260905164735 | 95 | 297 | 3.5 | 3.5 | 0.00 | 0.00 | 0.00 | 47 | 1015.0 |
| 20260905164236 | 95 | 263 | 5.2 | 5.2 | 0.00 | 0.00 | 0.00 | 46 | 1015.0 |
| 20260905163735 | 95 | 292 | 3.5 | 4.3 | 0.00 | 0.00 | 0.00 | 46 | 1015.0 |
| 20260905163237 | 94 | 302 | 1.7 | 3.5 | 0.00 | 0.00 | 0.00 | 48 | 1015.0 |
| 20260905162735 | 94 | 289 | 4.3 | 4.3 | 0.00 | 0.00 | 0.00 | 47 | 1015.0 |
| 20260905162235 | 94 | 273 | 3.5 | 5.2 | 0.00 | 0.00 | 0.00 | 49 | 1015.0 |
| 20260905161735 | 93 | 268 | 2.6 | 6.1 | 0.00 | 0.00 | 0.00 | 48 | 1015.0 |
| 20260905161235 | 93 | 280 | 2.6 | 3.5 | 0.00 | 0.00 | 0.00 | 49 | 1015.0 |
| 20260905160736 | 93 | 254 | 1.7 | 4.3 | 0.00 | 0.00 | 0.00 | 50 | 1015.0 |
| 20260905160236 | 93 | 289 | 2.6 | 5.2 | 0.00 | 0.00 | 0.00 | 50 | 1015.0 |
| 20260905155735 | 93 | 279 | 2.6 | 2.6 | 0.00 | 0.00 | 0.00 | 51 | 1015.0 |
| 20260905155235 | 92 | 293 | 2.6 | 3.5 | 0.00 | 0.00 | 0.00 | 51 | 1015.0 |
| 20260905154736 | 92 | 266 | 1.7 | 4.3 | 0.00 | 0.00 | 0.00 | 52 | 1015.0 |
| 20260905154235 | 91 | 277 | 1.7 | 2.6 | 0.00 | 0.00 | 0.00 | 54 | 1015.0 |
| 20260905153735 | 91 | 288 | 1.7 | 3.5 | 0.00 | 0.00 | 0.00 | 56 | 1015.0 |
| 20260905153235 | 90 | 269 | 3.5 | 4.3 | 0.00 | 0.00 | 0.00 | 56 | 1015.0 |
| 20260905152735 | 90 | 241 | 2.6 | 4.3 | 0.00 | 0.00 | 0.00 | 58 | 1015.0 |
| 20260905152235 | 89 | 255 | 2.6 | 3.5 | 0.00 | 0.00 | 0.00 | 58 | 1015.0 |
| 20260905151735 | 88 | 251 | 2.6 | 5.2 | 0.00 | 0.00 | 0.00 | 59 | 1015.0 |
| 20260905151235 | 87 | 241 | 1.7 | 4.3 | 0.00 | 0.00 | 0.00 | 60 | 1015.0 |
| 20260905150736 | 88 | 250 | 2.6 | 3.5 | 0.00 | 0.00 | 0.00 | 61 | 1015.0 |
| 20260905150235 | 87 | 239 | 1.7 | 2.6 | 0.00 | 0.00 | 0.00 | 62 | 1015.0 |
| 20260905145735 | 87 | 282 | 1.7 | 3.5 | 0.00 | 0.00 | 0.00 | 61 | 1015.0 |